Regional Weather Roundup
Issued by NWS

Home | Current Version | Previous Version | Text Only | Print | Product List | Glossary On
Versions: 1 2 3 4 5 6 7 8 9 10 11 12 13 14 15 16 17 18 19 20 21 22 23 24 25 26 27 28 29 30 31 32 33 34 35 36 37 38 39 40 41 42 43 44 45 46 47 48 49 50
000
ASUS43 KOAX 251202
RWRNE

WEATHER ROUNDUP FOR NEBRASKA
NATIONAL WEATHER SERVICE OMAHA NE
700 AM CDT MON SEP 25 2017

NOTES: SATELLITE DATA IS BEING USED TO AUGMENT CLOUD COVER ABOVE
       12000 FEET.
       "FAIR" INDICATES FEW OR NO CLOUDS BELOW 12,000 FEET WITH NO
       SIGNIFICANT WEATHER AND/OR OBSTRUCTIONS TO VISIBILITY.


NEZ001>004-019>022-054>056-251300-
NEBRASKA PANHANDLE

CITY           SKY/WX    TMP DP  RH WIND       PRES   REMARKS
SCOTTSBLUFF    CLOUDY    44  40  85 NE6       30.11F
6HR MIN TEMP:  41; 6HR MAX TEMP:  47; 6HR PCP:  0.05;

ALLIANCE       CLOUDY    43  41  93 N9        30.08F
6HR MIN TEMP:  41; 6HR MAX TEMP:  45; 6HR PCP:  0.07;

CHADRON        FOG       42  41  96 N5        30.13R VSB 1
6HR MIN TEMP:  42; 6HR MAX TEMP:  47; 6HR PCP:  0.15;

GORDON         CLOUDY    43  42  95 NE7       30.09F
6HR MIN TEMP:  43; 6HR MAX TEMP:  46; 6HR PCP:  0.14;

KIMBALL        CLOUDY    42  42 100 N7        30.11R FOG
SIDNEY         CLOUDY    43  42  97 N13       30.09R
6HR MIN TEMP:  43; 6HR MAX TEMP:  46; 6HR PCP:  0.01;

$$

NEZ057>060-069>072-079>082-251300-
SOUTHWEST NEBRASKA

CITY           SKY/WX    TMP DP  RH WIND       PRES   REMARKS
NORTH PLATTE   CLOUDY    49  47  93 NW7       30.07R
6HR MIN TEMP:  48; 6HR MAX TEMP:  51; 6HR PCP:  0.42;

IMPERIAL       CLOUDY    48  46  93 N14       30.04R
6HR MIN TEMP:  48; 6HR MAX TEMP:  51; 6HR PCP:  0.12;

LEXINGTON      CLOUDY    51  49  93 N9        30.02R
MCCOOK         CLOUDY    51  50  96 N12       30.01R
6HR MIN TEMP:  51; 6HR MAX TEMP:  53; 6HR PCP:  0.46;

OGALLALA       CLOUDY    49  46  90 N14       30.06S
$$

NEZ005>010-023>029-035>040-094-251300-
NORTH CENTRAL NEBRASKA

CITY           SKY/WX    TMP DP  RH WIND       PRES   REMARKS
VALENTINE      CLOUDY    47  45  93 N12       30.09S
6HR MIN TEMP:  47; 6HR MAX TEMP:  50; 6HR PCP:  0.10;

AINSWORTH      CLOUDY    47  47 100 N14       30.06F
BROKEN BOW     CLOUDY    50  49  96 N14G23    30.00F
6HR MIN TEMP:  50; 6HR MAX TEMP:  52; 6HR PCP:  0.97;

O`NEILL        DRIZZLE   49  49 100 N9        30.04R
ORD            RAIN      51  48  89 N10       30.00S FOG
6HR MIN TEMP:  50; 6HR MAX TEMP:  53; 6HR PCP:  0.65;

THEDFORD       CLOUDY    47  46  94 N10       30.07S
$$

NEZ041-046>049-061>064-073>077-083>087-251300-
SOUTH CENTRAL NEBRASKA

CITY           SKY/WX    TMP DP  RH WIND       PRES   REMARKS
GRAND ISLAND   CLOUDY    53  53 100 N10       29.99R
6HR MIN TEMP:  53; 6HR MAX TEMP:  55; 6HR PCP:  0.86;

AURORA         CLOUDY    54  53  99 NE7       29.96R
HASTINGS       LGT RAIN  54  53  97 N10       29.98R
6HR MIN TEMP:  54; 6HR MAX TEMP:  56; 6HR PCP:  0.94;

HEBRON         CLOUDY    58  58  97 CALM      29.96R
HOLDREGE       CLOUDY    51  50  96 N10G17    29.99R FOG
KEARNEY        LGT RAIN  52  51  97 N12       30.01R
YORK           RAIN      55  55 100 NE8       29.95R
$$

NEZ011>018-030>034-042>045-251300-
NORTHEAST NEBRASKA

CITY           SKY/WX    TMP DP  RH WIND       PRES   REMARKS
NORFOLK        LGT RAIN  53  52  96 N9        29.97F
6HR MIN TEMP:  52; 6HR MAX TEMP:  54; 6HR PCP:  0.57;

ALBION         CLOUDY    53  51  95 N8        29.99R
BLAIR          CLOUDY    58  58  98 NW10      29.97R FOG
COLUMBUS       LGT RAIN  55  53  93 N7        29.96F
FREMONT        RAIN      57  56  97 NE7       29.97S
TEKAMAH        CLOUDY    58  55  90 N8        29.97S
6HR MIN TEMP:  57; 6HR MAX TEMP:  60; 6HR PCP:  0.92;

WAYNE          LGT RAIN  54  51  91 N9        29.97F
$$

NEZ050>053-065>068-078-088>093-251300-
SOUTHEAST NEBRASKA

CITY           SKY/WX    TMP DP  RH WIND       PRES   REMARKS
LINCOLN        CLOUDY    58  56  93 N10       29.96R
6HR MIN TEMP:  58; 6HR MAX TEMP:  64; 6HR PCP:  0.19;

OMAHA EPPLEY   CLOUDY    63  59  87 NW12      29.96R
6HR MIN TEMP:  62; 6HR MAX TEMP:  65; 6HR PCP:  0.22;

BEATRICE       CLOUDY    62  61  98 NE8       29.94R FOG
FALLS CITY     CLEAR     66  64  93 SE3       29.91R
6HR MIN TEMP:  65; 6HR MAX TEMP:  72;

NEBRASKA CITY  CLEAR     63  63 100 N5        29.94R
PLATTSMOUTH    CLOUDY    64  64 100 NW5       29.96R FOG
$$

NEZ044-045-051>053-067-251300-
OMAHA AREA

CITY           SKY/WX    TMP DP  RH WIND       PRES   REMARKS
OMAHA EPPLEY   CLOUDY    63  59  87 NW12      29.96R
6HR MIN TEMP:  62; 6HR MAX TEMP:  65; 6HR PCP:  0.22;

BLAIR          CLOUDY    58  58  98 NW10      29.97R FOG
FREMONT        RAIN      57  56  97 NE7       29.97S
MILLARD        CLOUDY    61  60  95 NW9       29.96S
OFFUTT AFB     CLOUDY    63  60  93 NW7       29.95R
PLATTSMOUTH    CLOUDY    64  64 100 NW5       29.96R FOG
WAHOO          LGT RAIN  57  56  97 NE8       29.96R
$$




USA.gov is the U.S. government's official web portal to all federal, state and local government web resources and services.